EDT,Max TemperatureF,Mean TemperatureF,Min TemperatureF,Max Dew PointF,MeanDew PointF,Min DewpointF,Max Humidity, Mean Humidity, Min Humidity, Max Sea Level PressureIn, Mean Sea Level PressureIn, Min Sea Level PressureIn, Max VisibilityMiles, Mean VisibilityMiles, Min VisibilityMiles, Max Wind SpeedMPH, Mean Wind SpeedMPH, Max Gust SpeedMPH,PrecipitationIn, CloudCover, Events, WindDirDegrees
2011-10-1,65,58,50,57,51,48,93,78,63,29.81,29.74,29.65,10,10,2,15,8,20,0.02,6,Rain,287
2011-10-2,55,51,46,49,44,41,93,79,64,29.99,29.85,29.77,10,10,10,16,6,21,T,7,,255
2011-10-3,61,53,45,49,46,42,93,72,51,30.11,30.04,29.98,10,10,6,15,3,20,0.06,6,Rain,246
2011-10-4,68,57,46,53,48,45,100,76,52,30.13,30.10,30.07,10,10,6,18,6,24,0.01,4,,281
2011-10-5,75,65,54,54,50,46,93,66,38,30.25,30.16,30.12,10,10,10,17,6,22,0.00,0,,306
2011-10-6,72,59,46,49,45,40,86,59,31,30.39,30.35,30.27,10,10,10,12,3,16,0.00,0,,29
2011-10-7,74,58,42,54,45,38,92,61,29,30.49,30.43,30.37,10,10,10,10,2,14,0.00,0,,13
2011-10-8,76,61,45,55,48,41,93,61,29,30.54,30.50,30.45,10,10,10,7,1,12,0.00,0,,153
2011-10-9,83,65,47,60,51,44,89,63,36,30.47,30.41,30.33,10,10,10,7,1,9,0.00,0,,289
2011-10-10,85,68,50,59,55,47,93,65,37,30.32,30.23,30.15,10,10,8,9,2,10,0.00,0,,68
2011-10-11,73,66,58,66,61,55,93,79,64,30.15,30.11,30.06,10,9,5,13,5,16,0.00,3,,68
2011-10-12,75,71,67,67,65,60,100,82,64,30.06,29.95,29.83,10,8,2,20,9,25,0.01,8,Rain,78
2011-10-13,83,75,66,72,67,66,100,79,58,29.83,29.74,29.63,10,6,0,15,7,21,0.01,6,Rain,121
2011-10-14,75,66,56,70,62,44,100,77,54,29.72,29.57,29.46,10,10,7,24,8,35,0.03,4,Rain,194
2011-10-15,72,60,48,48,43,39,93,62,31,29.92,29.80,29.74,10,10,10,26,11,33,0.00,0,,233
2011-10-16,72,58,43,50,43,37,92,61,29,30.06,29.95,29.80,10,10,10,21,9,29,0.00,0,,216
2011-10-17,73,63,53,54,50,43,93,67,41,29.88,29.82,29.74,10,10,10,20,6,28,0.00,0,,250
2011-10-18,79,67,55,66,57,47,93,65,36,29.88,29.83,29.80,10,9,5,16,5,20,0.00,1,,113
2011-10-19,75,70,65,72,67,63,100,94,87,29.78,29.50,29.33,10,6,2,21,9,31,0.88,7,Rain,104
2011-10-20,72,63,53,70,51,40,93,70,47,29.83,29.54,29.32,10,10,10,28,14,38,0.00,4,,214
2011-10-21,66,58,49,47,43,40,92,68,43,30.10,29.99,29.84,10,10,10,15,5,20,0.00,2,,275
2011-10-22,64,54,44,45,42,40,92,68,43,30.16,30.12,30.09,10,10,9,13,4,17,0.00,4,,298
2011-10-23,67,52,37,47,41,34,89,65,40,30.18,30.14,30.11,10,10,7,9,1,23,0.00,0,,19
2011-10-24,69,55,40,53,45,37,93,69,45,30.16,30.08,30.00,10,10,7,9,2,12,0.01,1,,216
2011-10-25,68,58,47,53,45,37,93,63,32,30.19,30.12,30.05,10,10,9,16,6,24,0.01,0,,289
2011-10-26,74,62,49,54,50,45,93,69,44,30.11,29.93,29.80,10,10,10,21,9,28,T,1,Thunderstorm,206
2011-10-27,75,61,47,57,52,40,80,67,53,29.96,29.74,29.60,10,10,10,29,10,39,0.02,6,Rain,242
2011-10-28,50,46,42,41,35,28,89,68,46,30.23,30.16,29.97,10,10,10,16,8,22,0.03,8,Rain,8
2011-10-29,55,47,38,52,43,35,96,89,82,30.11,29.88,29.66,10,6,2,25,16,35,0.92,8,Rain,6
2011-10-30,55,43,31,36,32,26,89,62,35,30.39,30.23,30.03,10,10,10,16,6,22,0.00,1,,319
2011-10-31,59,44,29,46,37,26,92,70,47,30.42,30.33,30.24,10,10,10,17,4,22,0.01,3,Rain,100